Woodward, OK

4:15 PM CDT on August 22, 2017 (GMT -0500)
West Woodward

Weather History for KWWR - May, 2013

Change the Weather History Date:

Sunday, May 26, 2013

  Actual Average (KGAG) Record (KGAG)
Temperature  
Mean Temperature 80 °F -  
Max Temperature 93 °F 80 °F 101 °F (1953)
Min Temperature 68 °F 55 °F 43 °F (1992)
Cooling Degree Days 16    
Growing Degree Days 30 (Base 50)    
Moisture  
Dew Point 62 °F    
Average Humidity 59    
Maximum Humidity 88    
Minimum Humidity 28    
Precipitation  
Precipitation 0.00 in - - ()
Sea Level Pressure  
Sea Level Pressure 29.92 in    
Wind  
Wind Speed 20 mph (SSE)    
Max Wind Speed 28 mph    
Max Gust Speed 36 mph    
Visibility 10 miles    
Events      
Averages and records for this station are not official NWS values.
T = Trace of Precipitation, MM = Missing Value Source: NWS Daily Summary

Daily Weather History Graph

Daily Weather History Graph

Search for Another Location

Airport or City:

Trip Planner

Search our weather history database for the weather conditions in past years. The results will help you decide how hot, cold, wet, or windy it might be!

Date:

Astronomy

May. 26, 2013 Rise Set
Actual Time 6:23 AM CDT 8:46 PM CDT
Civil Twilight 5:54 AM CDT 9:16 PM CDT
Nautical Twilight 5:17 AM CDT 9:52 PM CDT
Astronomical Twilight 4:38 AM CDT 10:33 PM CDT
Moon 10:36 PM CDT (5/26) 7:54 AM CDT (5/26)
Length of Visible Light 15h 22m
Length of Day
14h 22m
Waning Gibbous, 96% of the Moon is Illuminated
May 26
Waning Gibbous
May 31
Last Quarter
Jun 8
New
Jun 16
First Quarter
Jun 23
Full

Hourly Weather History & Observations

Time (CDT) Temp. Heat Index Dew Point Humidity Pressure Visibility Wind Dir Wind Speed Gust Speed Precip Events Conditions
12:15 AM 69.8 °F - 64.4 °F 83% 29.98 in 10.0 mi SSE 23.0 mph 33.4 mph N/A   Clear
12:35 AM 69.8 °F - 64.4 °F 83% 29.98 in 10.0 mi South 26.5 mph 35.7 mph N/A   Clear
12:55 AM 69.8 °F - 64.4 °F 83% 29.97 in 10.0 mi SSE 25.3 mph 34.5 mph N/A   Clear
1:15 AM 69.8 °F - 62.6 °F 78% 29.96 in 10.0 mi SSE 24.2 mph 32.2 mph N/A   Clear
1:35 AM 69.8 °F - 62.6 °F 78% 29.95 in 10.0 mi SSE 21.9 mph 28.8 mph N/A   Clear
1:55 AM 69.8 °F - 62.6 °F 78% 29.94 in 10.0 mi SSE 19.6 mph 28.8 mph N/A   Clear
2:15 AM 69.8 °F - 62.6 °F 78% 29.94 in 10.0 mi SSE 17.3 mph 27.6 mph N/A   Clear
2:35 AM 68.0 °F - 62.6 °F 83% 29.94 in 10.0 mi SSE 19.6 mph 26.5 mph N/A   Clear
2:55 AM 68.0 °F - 62.6 °F 83% 29.95 in 10.0 mi South 16.1 mph 28.8 mph N/A   Clear
3:15 AM 69.8 °F - 64.4 °F 83% 29.96 in 10.0 mi South 17.3 mph 25.3 mph N/A   Mostly Cloudy
3:35 AM 69.8 °F - 64.4 °F 83% 29.96 in 10.0 mi South 17.3 mph 26.5 mph N/A   Mostly Cloudy
3:55 AM 69.8 °F - 64.4 °F 83% 29.96 in 10.0 mi South 18.4 mph 25.3 mph N/A   Scattered Clouds
4:15 AM 69.8 °F - 64.4 °F 83% 29.96 in 10.0 mi South 20.7 mph 26.5 mph N/A   Scattered Clouds
4:35 AM 69.8 °F - 64.4 °F 83% 29.97 in 10.0 mi SSE 16.1 mph 24.2 mph N/A   Scattered Clouds
4:55 AM 69.8 °F - 64.4 °F 83% 29.98 in 10.0 mi South 12.7 mph 18.4 mph N/A   Mostly Cloudy
5:15 AM 69.8 °F - 64.4 °F 83% 29.98 in 10.0 mi South 12.7 mph - N/A   Mostly Cloudy
5:35 AM 68.0 °F - 64.4 °F 88% 29.99 in 10.0 mi SSE 6.9 mph - N/A   Mostly Cloudy
5:55 AM 69.8 °F - 64.4 °F 83% 30.00 in 10.0 mi South 6.9 mph - N/A   Overcast
6:15 AM 69.8 °F - 64.4 °F 83% 30.00 in 10.0 mi South 9.2 mph - N/A   Overcast
6:35 AM 69.8 °F - 64.4 °F 83% 30.00 in 10.0 mi South 9.2 mph - N/A   Overcast
6:55 AM 69.8 °F - 64.4 °F 83% 30.00 in 10.0 mi South 12.7 mph 16.1 mph N/A   Overcast
7:15 AM 69.8 °F - 64.4 °F 83% 30.01 in 10.0 mi South 10.4 mph - N/A   Light Drizzle
7:35 AM 69.8 °F - 64.4 °F 83% 30.01 in 10.0 mi South 10.4 mph 16.1 mph N/A   Overcast
7:55 AM 69.8 °F - 64.4 °F 83% 30.01 in 10.0 mi South 13.8 mph 19.6 mph N/A   Overcast
8:15 AM 71.6 °F - 64.4 °F 78% 30.01 in 10.0 mi South 15.0 mph - N/A   Overcast
8:35 AM 73.4 °F - 64.4 °F 73% 30.00 in 10.0 mi South 15.0 mph 23.0 mph N/A   Mostly Cloudy
8:55 AM 73.4 °F - 64.4 °F 73% 29.98 in 10.0 mi South 21.9 mph 26.5 mph N/A   Scattered Clouds
9:15 AM 73.4 °F - 64.4 °F 73% 29.98 in 10.0 mi South 24.2 mph - N/A   Clear
9:35 AM 75.2 °F - 64.4 °F 69% 29.99 in 10.0 mi South 21.9 mph 28.8 mph N/A   Clear
9:55 AM 77.0 °F - 64.4 °F 65% 29.98 in 10.0 mi South 23.0 mph 28.8 mph N/A   Clear
10:15 AM 77.0 °F - 62.6 °F 61% 29.97 in 10.0 mi South 23.0 mph 28.8 mph N/A   Clear
10:35 AM 78.8 °F - 62.6 °F 57% 29.96 in 10.0 mi South 20.7 mph 31.1 mph N/A   Clear
10:55 AM 78.8 °F - 62.6 °F 57% 29.96 in 10.0 mi South 17.3 mph 27.6 mph N/A   Clear
11:15 AM 80.6 °F 81.8 °F 62.6 °F 54% 29.96 in 10.0 mi South 18.4 mph 23.0 mph N/A   Clear
11:35 AM 82.4 °F 82.9 °F 60.8 °F 48% 29.96 in 10.0 mi South 18.4 mph 23.0 mph N/A   Clear
11:55 AM 82.4 °F 82.9 °F 60.8 °F 48% 29.95 in 10.0 mi South 19.6 mph 28.8 mph N/A   Clear
12:15 PM 84.2 °F 84.4 °F 60.8 °F 45% 29.94 in 10.0 mi South 23.0 mph 31.1 mph N/A   Clear
12:35 PM 86.0 °F 86.1 °F 60.8 °F 43% 29.94 in 10.0 mi South 21.9 mph 31.1 mph N/A   Clear
12:55 PM 87.8 °F 87.6 °F 60.8 °F 40% 29.93 in 10.0 mi South 21.9 mph 31.1 mph N/A   Clear
1:15 PM 87.8 °F 87.1 °F 59.0 °F 38% 29.92 in 10.0 mi South 27.6 mph 34.5 mph N/A   Clear
1:35 PM 89.6 °F 89.5 °F 60.8 °F 38% 29.91 in 10.0 mi South 25.3 mph 32.2 mph N/A   Clear
1:55 PM 89.6 °F 88.9 °F 59.0 °F 36% 29.90 in 10.0 mi South 26.5 mph 33.4 mph N/A   Clear
2:15 PM 89.6 °F 88.9 °F 59.0 °F 36% 29.89 in 10.0 mi South 25.3 mph 34.5 mph N/A   Clear
2:35 PM 89.6 °F 88.1 °F 57.2 °F 33% 29.89 in 10.0 mi South 24.2 mph 33.4 mph N/A   Clear
2:55 PM 91.4 °F 89.9 °F 57.2 °F 31% 29.88 in 10.0 mi SSE 24.2 mph 29.9 mph N/A   Clear
3:15 PM 91.4 °F 89.9 °F 57.2 °F 31% 29.88 in 10.0 mi SSE 23.0 mph 29.9 mph N/A   Clear
3:35 PM 91.4 °F 89.9 °F 57.2 °F 31% 29.88 in 10.0 mi South 20.7 mph 35.7 mph N/A   Clear
3:55 PM 91.4 °F 89.9 °F 57.2 °F 31% 29.88 in 10.0 mi South 23.0 mph 31.1 mph N/A   Clear
4:15 PM 91.4 °F 89.4 °F 55.4 °F 29% 29.87 in 10.0 mi South 20.7 mph 33.4 mph N/A   Clear
4:35 PM 91.4 °F 89.4 °F 55.4 °F 29% 29.87 in 10.0 mi South 23.0 mph 32.2 mph N/A   Clear
4:55 PM 93.2 °F 91.3 °F 55.4 °F 28% 29.86 in 10.0 mi SSE 21.9 mph 29.9 mph N/A   Clear
5:15 PM 91.4 °F 89.4 °F 55.4 °F 29% 29.86 in 10.0 mi SSE 26.5 mph 32.2 mph N/A   Clear
6:15 PM 91.4 °F 89.4 °F 55.4 °F 29% 29.84 in 10.0 mi SSE 23.0 mph 27.6 mph N/A   Clear
6:35 PM 89.6 °F 87.7 °F 55.4 °F 31% 29.83 in 10.0 mi South 24.2 mph 31.1 mph N/A   Clear
6:55 PM 89.6 °F 87.7 °F 55.4 °F 31% 29.83 in 10.0 mi SSE 23.0 mph 32.2 mph N/A   Clear
7:15 PM 89.6 °F 87.7 °F 55.4 °F 31% 29.83 in 10.0 mi SSE 18.4 mph 27.6 mph N/A   Clear
7:35 PM 87.8 °F 86.1 °F 55.4 °F 33% 29.83 in 10.0 mi SSE 19.6 mph 29.9 mph N/A   Clear
7:55 PM 87.8 °F 87.1 °F 59.0 °F 38% 29.83 in 10.0 mi SSE 19.6 mph 26.5 mph N/A   Clear
8:15 PM 86.0 °F 85.4 °F 59.0 °F 40% 29.83 in 10.0 mi SSE 23.0 mph 28.8 mph N/A   Clear
8:35 PM 84.2 °F 84.4 °F 60.8 °F 45% 29.83 in 10.0 mi SSE 21.9 mph 31.1 mph N/A   Clear
8:55 PM 82.4 °F 82.9 °F 60.8 °F 48% 29.83 in 10.0 mi SSE 24.2 mph 29.9 mph N/A   Clear
9:15 PM 80.6 °F 81.8 °F 62.6 °F 54% 29.83 in 10.0 mi SSE 23.0 mph 31.1 mph N/A   Clear
9:35 PM 80.6 °F 81.8 °F 62.6 °F 54% 29.83 in 10.0 mi SSE 25.3 mph 34.5 mph N/A   Clear
9:55 PM 78.8 °F - 64.4 °F 61% 29.84 in 10.0 mi SSE 23.0 mph 32.2 mph N/A   Clear
10:15 PM 78.8 °F - 64.4 °F 61% 29.85 in 10.0 mi SSE 23.0 mph 35.7 mph N/A   Clear
10:35 PM 78.8 °F - 64.4 °F 61% 29.85 in 10.0 mi SSE 25.3 mph 33.4 mph N/A   Clear
10:55 PM 77.0 °F - 64.4 °F 65% 29.85 in 10.0 mi SSE 25.3 mph 32.2 mph N/A   Clear
11:15 PM 77.0 °F - 64.4 °F 65% 29.85 in 10.0 mi SSE 24.2 mph 33.4 mph N/A   Clear
11:35 PM 77.0 °F - 64.4 °F 65% 29.84 in 10.0 mi SSE 25.3 mph 34.5 mph N/A   Clear
11:55 PM 77.0 °F - 64.4 °F 65% 29.83 in 10.0 mi SSE 26.5 mph 35.7 mph N/A   Clear